Location: Be?chatów
(51.3665°N, 19.3745°E)
Time: 21:27:50
(UTC+00:00)

Resurs 01 Rocket - Pass Details

Date: 19 May 2025
Orbit: 627 x 637 km, 97.7° (Epoch: 16 June)

Event Time Altitude Azimuth Distance (km) Brightness Sun altitude
Rises 19:11:29 0° 206° (SSW) 2,915 4.9 -5.5°
Reaches altitude 10° 19:14:16 10° 225° (SW) 2,011 4.2 -5.8°
Maximum altitude 19:17:21 19° 270° (W) 1,526 4.3 -6.2°
Drops below altitude 10° 19:20:27 10° 315° (NW) 2,019 6.1 -6.5°
Sets 19:23:15 0° 334° (NNW) 2,931 6.6 -6.8°
